Weather History for Christmas Island, IS

Change the Weather History Date:

Saturday, February 9, 2013

  Actual Average Record
Temperature  
Mean Temperature 80 °F -  
Max Temperature 84 °F 79 °F 84 °F (1998)
Min Temperature 75 °F 71 °F 71 °F (2002)
Cooling Degree Days 14    
Growing Degree Days 30 (Base 50)    
Moisture  
Dew Point 74 °F    
Average Humidity 82    
Maximum Humidity 94    
Minimum Humidity 66    
Precipitation  
Precipitation 0.01 in - - ()
Sea Level Pressure  
Sea Level Pressure 29.87 in    
Wind  
Wind Speed 4 mph ()    
Max Wind Speed 9 mph    
Max Gust Speed -    
Visibility 6.2 miles    
Events      
Averages and records for this station are not official NWS values.
T = Trace of Precipitation, MM = Missing Value Source: Averaged Metar Reports

Daily Weather History Graph

Daily Weather History Graph

Search for Another Location

Airport:

Trip Planner

Search our weather history database for the weather conditions in past years. The results will help you decide how hot, cold, wet, or windy it might be!

Date:

Astronomy

Feb. 09, 2013 Rise Set
Actual Time 5:56 AM CXT 6:25 PM CXT
Civil Twilight 5:35 AM CXT 6:47 PM CXT
Nautical Twilight 5:09 AM CXT 7:13 PM CXT
Astronomical Twilight 4:43 AM CXT 7:38 PM CXT
Moon 4:40 AM CXT (2/9) 5:29 PM CXT (2/9)
Length of Visible Light 13h 12m
Length of Day
12h 29m
Waning Crescent, 2% of the Moon is Illuminated
Feb 9
Waning Crescent
Feb 10
New
Feb 18
First Quarter
Feb 26
Full
Mar 5
Last Quarter

Hourly Weather History & Observations

Time (CXT) Temp. Heat Index Dew Point Humidity Pressure Visibility Wind Dir Wind Speed Gust Speed Precip Events Conditions
12:00 AM 77 °F - 74 °F 90% 29.87 in - WSW 1.2 mph - -  
12:00 AM 77.0 °F - 75.2 °F 94% 29.89 in 6.2 mi WSW 1.2 mph - N/A   Unknown
1:00 AM 76 °F - 74 °F 91% 29.86 in - SW 3.5 mph - -  
1:00 AM 77.0 °F - 73.4 °F 89% 29.89 in 6.2 mi SW 3.5 mph - N/A   Unknown
2:00 AM 77.0 °F - 73.4 °F 89% 29.89 in 6.2 mi SW 3.5 mph - N/A   Unknown
3:00 AM 76 °F - 74 °F 91% 29.83 in - SW 3.5 mph - -  
3:00 AM 77.0 °F - 73.4 °F 89% 29.86 in 6.2 mi SW 3.5 mph - N/A   Unknown
4:00 AM 76 °F - 74 °F 90% 29.83 in - SW 3.5 mph - -  
4:00 AM 75.2 °F - 73.4 °F 94% 29.86 in 6.2 mi SW 3.5 mph - N/A   Unknown
5:00 AM 77.0 °F - 73.4 °F 89% 29.86 in 6.2 mi SW 3.5 mph - N/A   Scattered Clouds
6:00 AM 76 °F - 74 °F 91% 29.84 in - SW 3.5 mph - -  
6:00 AM 75.2 °F - 73.4 °F 94% 29.89 in 6.2 mi SW 3.5 mph - N/A   Scattered Clouds
7:00 AM 78 °F - 74 °F 86% 29.86 in - South 4.6 mph - -  
7:00 AM 78.8 °F - 75.2 °F 89% 29.89 in 6.2 mi South 4.6 mph - N/A   Mostly Cloudy
8:00 AM 80.6 °F 86.2 °F 75.2 °F 84% 29.92 in 6.2 mi South 5.8 mph - N/A   Mostly Cloudy
9:00 AM 81 °F - 74 °F 74% 29.90 in - South 5.8 mph - -  
9:00 AM 80.6 °F 85.4 °F 73.4 °F 79% 29.95 in 6.2 mi South 5.8 mph - N/A   Scattered Clouds
10:00 AM 82 °F - 74 °F 69% 29.90 in - South 6.9 mph - -  
10:00 AM 82.4 °F 88.2 °F 73.4 °F 74% 29.92 in 6.2 mi South 6.9 mph - N/A   Scattered Clouds
11:00 AM 82.4 °F 89.5 °F 75.2 °F 79% 29.92 in - South 8.1 mph - N/A   Scattered Clouds
12:00 PM 83 °F - 74 °F 67% 29.88 in - SSE 8.1 mph - -  
12:00 PM 82.4 °F 88.2 °F 73.4 °F 74% 29.92 in 6.2 mi SSE 8.1 mph - N/A   Scattered Clouds
1:00 PM 83 °F - 74 °F 68% 29.86 in - South 8.1 mph - -  
1:00 PM 84.2 °F 90.9 °F 73.4 °F 70% 29.89 in - South 8.1 mph - N/A   Unknown
2:00 PM 84.2 °F 90.9 °F 73.4 °F 70% 29.86 in 6.2 mi SE 9.2 mph - N/A   Scattered Clouds
3:00 PM 83 °F - 74 °F 66% 29.81 in - South 6.9 mph - -  
3:00 PM 82.4 °F 88.2 °F 73.4 °F 74% 29.86 in 6.2 mi South 6.9 mph - N/A   Scattered Clouds
4:00 PM 83 °F - 74 °F 67% 29.80 in - South 8.1 mph - -  
4:00 PM 82.4 °F 88.2 °F 73.4 °F 74% 29.83 in 6.2 mi South 8.1 mph - N/A   Scattered Clouds
5:00 PM 82.4 °F 88.2 °F 73.4 °F 74% 29.83 in 6.2 mi South 8.1 mph - N/A   Unknown
6:00 PM 80 °F - 73 °F 74% 29.80 in - South 5.8 mph - -  
6:00 PM 80.6 °F 85.4 °F 73.4 °F 79% 29.83 in 6.2 mi South 5.8 mph - N/A   Unknown
7:00 PM 79 °F - 73 °F 77% 29.83 in - South 3.5 mph - -  
7:00 PM 78.8 °F - 73.4 °F 83% 29.86 in 6.2 mi South 3.5 mph - N/A   Unknown
8:00 PM 78.8 °F - 73.4 °F 83% 29.89 in 6.2 mi SSW 3.5 mph - N/A   Scattered Clouds
9:00 PM 77 °F - 73 °F 83% 29.87 in - Calm Calm - -  
9:00 PM 77.0 °F - 73.4 °F 89% 29.92 in 6.2 mi Calm Calm - N/A   Unknown
10:00 PM 76 °F - 73 °F 87% 29.87 in - Calm Calm - -  
10:00 PM 77.0 °F - 73.4 °F 89% 29.92 in 6.2 mi Calm Calm - N/A   Unknown
11:00 PM 75.2 °F - 73.4 °F 94% 29.92 in 6.2 mi SW 2.3 mph - N/A   Unknown